Wind_Speed
8 8 10 11 10 9 9 10 10 10 11 11 10 10 10 11 11 12 13 13 13 13 13 13 13 14 14 15 16 16 17 17 17 17 17 17 17 17 17 17 18 18 18 19 19 19 19 20 20 20 20 20 21 21 21 21 21 21 22 22 22 23 23 23 23 23 24 24 24 24 25 25 25 26 26 26 26 26 27 27 27 27 27 28 28 28
6 7 8 9 9 9 10 10 9 9 9 10 10 10 11 11 12 13 13 13 13 13 13 13 14 14 15 16 16 17 17 17 17 17 17 17 17 17 18 18 18 18 18 19 19 19 19 19 19 19 20 20 20 20 21 21 21 21 21 22 22 22 23 23 23 24 24 24 25 25 25 26 26 26 27 27 27 27 27 27 28 28 28 28 28 28
4 5 6 7 7 8 9 9 9 9 9 10 10 11 12 12 13 13 12 12 12 12 13 13 14 14 15 16 16 17 17 17 18 18 18 18 17 17 18 18 18 18 18 18 18 18 18 19 19 19 19 19 20 20 21 21 21 21 22 22 22 23 23 23 24 24 25 25 25 26 26 27 27 27 27 28 28 28 28 28 28 28 28 28 28 28
5 6 6 6 7 8 9 9 9 10 10 10 11 11 12 12 12 12 12 12 12 12 13 13 13 14 15 16 16 17 17 18 18 18 18 18 18 17 17 17 17 17 17 17 17 17 18 18 18 19 19 20 20 20 21 21 21 22 22 22 22 23 23 23 24 24 25 25 26 26 26 27 27 27 27 28 28 28 28 28 28 29 29 29 29 28
5 6 6 6 7 8 9 9 9 9 10 11 11 11 11 11 11 11 12 12 12 12 13 13 13 14 15 16 17 18 18 18 18 18 18 18 18 17 16 16 16 16 16 17 17 18 18 18 19 19 20 20 20 21 21 22 22 22 22 23 23 23 23 24 24 24 25 25 25 25 26 26 26 26 27 27 27 28 28 28 28 28 29 29 28 28
6 6 6 6 7 8 9 9 9 9 10 10 10 10 10 10 11 11 11 11 12 12 13 14 14 15 16 17 17 18 18 18 18 18 18 18 17 17 16 16 16 16 17 17 18 18 19 19 20 20 20 21 21 22 22 22 23 23 23 23 23 24 24 24 24 24 24 25 25 25 25 25 25 26 26 26 26 27 27 27 28 28 28 28 28 28
7 6 6 6 7 8 8 9 9 9 9 10 10 10 10 10 10 11 11 12 12 13 14 15 15 16 16 17 17 17 17 17 17 17 17 17 16 16 16 16 16 17 18 18 19 19 20 20 20 21 21 22 22 22 23 23 23 23 23 23 23 24 24 24 24 24 24 24 24 24 24 24 25 25 25 25 26 26 26 26 27 27 27 28 28 28
7 6 6 6 7 8 8 9 9 8 8 9 10 10 11 11 11 11 12 12 13 13 14 15 15 16 16 16 16 15 15 15 15 15 15 15 15 15 16 16 17 18 18 19 20 20 20 21 21 21 22 22 23 23 23 23 23 23 23 23 23 23 23 23 23 23 23 23 23 23 23 24 24 24 24 25 25 25 25 26 26 26 27 27 27 28
7 6 6 6 7 7 9 9 9 8 8 9 9 10 11 11 12 12 12 12 12 12 13 14 15 15 15 15 15 15 14 14 14 14 14 15 15 15 16 17 18 18 19 19 20 20 21 21 21 22 22 23 23 23 23 23 23 23 23 22 22 22 22 22 22 22 22 22 23 23 23 23 24 24 24 24 25 25 25 25 26 26 27 27 27 27
6 6 7 7 7 8 8 9 9 9 8 9 9 10 10 10 11 12 12 12 12 12 12 13 14 15 15 15 15 14 14 14 14 14 15 15 16 16 17 17 18 18 19 19 20 20 21 21 21 22 22 22 22 23 23 23 22 22 22 22 21 21 21 21 21 22 22 22 22 23 23 23 23 24 24 24 25 25 25 26 26 26 27 27 27 28
6 6 6 7 7 8 8 8 9 9 9 9 9 9 9 9 10 11 12 12 13 12 12 13 13 14 15 15 14 14 14 14 14 14 14 14 15 16 16 16 17 17 18 19 19 20 20 20 20 21 21 22 22 22 22 22 22 21 21 21 21 21 21 21 21 22 22 22 23 23 23 24 24 24 24 25 25 25 26 26 26 27 27 27 28 28
6 6 6 7 7 7 8 8 9 9 8 7 8 8 9 9 9 10 12 13 13 13 13 13 13 13 14 14 14 14 14 13 13 13 13 13 13 14 14 15 15 16 17 18 18 18 19 19 19 20 21 22 22 22 22 21 21 21 21 21 21 21 21 21 22 22 23 23 23 24 24 24 25 25 25 26 26 26 26 27 27 27 27 28 28 28
6 6 6 6 7 7 8 8 8 8 7 7 7 8 9 9 10 11 12 13 13 13 13 13 13 13 13 14 14 14 13 13 13 13 13 13 13 13 14 14 15 16 16 17 17 18 18 18 19 20 21 21 21 21 21 20 20 20 20 20 21 21 22 22 23 23 24 24 24 25 25 25 25 26 26 26 27 27 27 27 27 28 28 28 28 29
6 5 5 6 7 7 8 8 8 7 7 7 8 9 10 11 11 11 12 12 12 12 12 12 13 14 14 14 13 13 13 12 12 12 13 13 13 14 14 15 16 16 17 17 17 17 18 18 19 19 20 20 20 19 19 19 19 20 21 21 22 23 23 24 24 25 25 25 25 25 25 26 26 26 26 26 27 27 27 27 28 28 28 28 28 28
6 5 6 7 8 8 8 8 8 8 8 9 10 10 11 11 11 11 11 11 11 11 12 13 13 14 13 13 12 11 11 11 12 12 13 13 14 14 15 16 16 17 17 17 17 17 18 18 18 18 19 19 19 19 19 20 21 22 22 23 24 24 25 25 25 25 25 26 26 26 26 26 26 26 26 27 27 27 27 27 28 28 28 28 28 28
6 6 7 8 8 9 8 8 8 9 10 10 10 10 10 10 10 10 10 10 11 11 12 12 13 13 12 11 10 10 10 11 11 12 14 15 15 15 16 16 17 17 17 18 18 18 18 18 18 18 19 19 20 21 21 22 23 24 24 25 25 25 25 26 26 26 26 26 26 26 26 26 26 26 27 27 27 27 28 28 28 28 28 28 28 28
7 7 8 8 8 9 9 9 9 10 10 10 9 9 9 9 9 9 10 11 11 11 11 11 10 10 10 11 11 10 10 11 12 13 15 16 16 16 16 16 16 17 17 18 18 18 18 18 18 19 20 20 21 22 23 24 25 25 26 26 26 26 26 26 26 26 26 26 26 26 27 27 27 27 27 27 27 28 28 28 28 28 28 28 28 29
7 7 7 8 8 9 10 10 9 9 9 9 9 9 9 9 10 10 10 11 11 11 11 11 10 9 9 10 10 10 11 12 13 14 15 17 17 17 16 16 16 16 17 17 18 18 18 18 19 20 21 22 23 24 25 26 26 26 26 26 26 26 26 26 26 26 26 27 27 27 27 27 27 27 27 27 27 27 27 28 28 28 28 28 28 29
6 7 7 8 9 10 10 9 9 9 8 9 9 9 10 10 11 11 11 11 11 11 12 11 11 12 12 13 13 13 13 14 14 15 16 17 18 17 16 15 16 16 17 18 18 18 19 19 21 22 23 24 25 25 25 25 26 26 26 26 27 27 27 27 27 27 27 27 27 27 27 27 27 27 27 27 27 27 27 27 28 28 28 28 28 28
7 8 9 9 9 10 9 9 8 8 8 9 10 11 11 11 12 12 12 12 12 12 12 12 12 13 14 15 15 15 14 15 15 15 16 17 17 17 16 15 15 16 17 18 18 18 19 20 21 22 23 23 24 24 25 25 26 26 27 27 27 27 27 27 27 27 27 27 27 27 27 27 27 27 27 27 27 27 27 27 27 28 28 28 28 28
9 10 9 9 9 9 9 9 9 9 9 10 11 12 12 12 12 12 12 12 12 12 12 12 13 14 15 16 17 17 16 15 14 14 14 15 16 17 15 14 14 16 17 18 18 19 19 20 21 21 22 23 24 25 26 26 27 28 28 28 28 28 28 27 27 27 27 27 27 27 27 27 27 27 27 27 27 27 28 28 28 28 28 28 28 28
10 10 10 9 9 9 10 9 10 10 10 11 12 12 12 12 12 11 11 11 12 12 12 12 14 15 17 18 18 18 16 14 13 13 12 13 15 16 15 14 14 15 17 18 19 19 19 20 21 21 22 24 25 26 27 27 28 28 28 28 28 28 27 27 27 27 27 27 27 27 27 27 27 27 27 27 27 27 28 28 28 28 28 28 29 28
10 10 10 10 9 10 10 10 11 11 12 12 13 14 14 14 13 13 12 12 13 13 13 14 16 17 18 18 18 17 15 13 12 11 11 11 14 15 14 13 14 15 17 18 19 19 20 20 21 22 23 24 25 26 27 27 28 28 28 28 28 27 27 27 27 27 27 27 27 27 27 28 28 28 28 28 28 28 28 28 28 28 28 28 28 28
9 9 9 9 9 10 10 11 11 12 12 13 15 16 15 14 13 13 13 14 14 15 15 16 17 17 17 17 16 15 13 11 10 9 10 11 13 15 14 14 14 16 18 19 19 19 20 21 22 22 23 24 25 26 26 27 27 27 28 27 27 27 27 27 27 27 27 27 27 28 28 28 28 28 28 28 28 28 28 28 28 28 28 28 29 29
9 9 10 10 10 11 12 12 12 12 12 13 13 12 11 12 12 13 14 14 15 15 15 15 15 15 15 15 14 12 11 9 8 9 9 11 13 15 15 14 14 16 18 19 19 19 20 22 22 23 23 24 25 25 26 26 26 27 27 27 27 27 27 27 27 27 28 28 28 28 28 28 28 28 28 28 28 28 28 27 27 27 28 28 28 29
10 11 10 10 11 11 12 12 12 13 13 14 14 14 13 14 14 14 15 15 14 14 13 13 13 13 14 13 12 12 10 9 8 9 10 11 13 15 15 14 15 16 18 20 20 20 21 22 23 23 23 24 24 25 25 25 25 25 25 26 26 26 27 27 27 28 28 28 28 28 28 28 27 28 27 27 27 27 27 27 27 27 28 28 29 29
11 11 11 11 11 12 12 13 14 14 15 15 15 15 15 15 15 15 15 14 13 12 11 11 11 12 13 12 12 11 11 10 9 10 11 12 13 14 15 15 15 16 18 19 20 20 21 22 23 24 24 23 23 23 23 23 23 24 25 25 26 26 27 27 27 28 28 28 27 27 27 27 27 27 27 27 27 27 27 27 27 27 28 28 29 29
10 9 10 11 12 13 13 14 15 15 16 16 17 16 15 14 14 14 14 13 11 10 10 10 10 10 11 12 12 12 12 11 11 11 11 11 12 13 14 15 15 16 17 19 20 21 21 22 22 23 22 22 21 21 21 22 22 24 25 25 26 26 26 26 26 26 26 26 26 26 26 26 26 27 27 27 27 27 27 27 27 27 27 27 27 27
8 10 12 13 13 14 14 15 16 16 17 17 16 15 13 13 13 13 12 11 10 9 10 10 10 10 11 12 13 14 13 13 11 10 9 9 11 13 15 15 15 16 16 18 20 21 20 20 19 19 19 19 20 20 20 21 22 23 24 25 25 25 25 25 25 25 25 25 26 26 26 26 26 26 27 27 27 26 26 26 26 26 25 24 24 23
8 10 12 12 12 12 13 13 14 15 15 14 13 12 11 11 11 11 11 10 9 9 10 10 11 11 11 11 11 11 10 10 8 6 6 8 10 13 15 15 15 15 15 15 14 14 16 18 17 16 16 17 19 20 21 22 22 23 23 23 23 23 23 23 23 24 24 25 25 26 26 26 26 26 26 26 26 26 26 25 25 24 23 22 22 21
9 10 10 11 11 11 11 11 12 12 11 10 10 9 8 8 9 9 9 9 9 9 10 10 11 11 10 9 7 5 5 7 6 5 6 8 11 13 15 15 15 15 14 12 8 6 9 14 17 16 16 17 19 21 22 22 22 22 22 22 22 22 22 22 23 24 24 25 25 25 25 25 25 25 25 25 25 25 25 25 24 23 22 21 21 21
11 11 11 11 10 10 10 10 9 9 8 7 7 7 7 7 7 8 8 9 9 9 10 11 11 11 11 10 9 8 8 10 9 8 9 10 12 14 15 14 15 15 15 13 11 8 6 10 15 19 19 20 21 22 22 22 21 21 22 22 22 22 23 22 22 23 23 23 24 24 24 24 24 25 25 25 25 25 24 24 23 22 21 21 21 21
11 11 11 10 10 9 9 8 7 7 7 6 6 6 6 6 7 7 8 9 9 10 10 11 11 12 12 13 14 14 15 14 13 12 11 11 12 14 14 14 15 16 16 15 15 14 12 14 18 22 22 22 22 21 21 21 21 21 21 21 21 22 22 22 21 22 22 22 23 23 23 23 23 23 24 23 24 23 23 23 22 21 21 20 20 20
10 10 10 9 9 8 7 7 6 6 6 6 6 6 6 7 7 8 8 9 9 10 11 11 12 12 12 13 14 15 16 16 14 12 11 11 12 13 15 15 16 16 16 15 15 16 16 18 19 20 21 22 23 22 21 21 21 21 20 20 21 21 22 21 21 21 22 22 22 22 22 22 22 22 22 22 22 22 21 21 21 21 20 20 20 20
9 9 8 8 7 6 6 6 6 6 6 6 6 7 7 7 8 8 9 9 10 11 12 12 13 13 13 13 14 15 16 15 13 12 11 12 13 14 16 16 16 15 15 15 15 15 16 18 19 19 20 22 23 23 22 21 20 20 20 20 20 21 21 21 21 22 22 22 22 22 22 21 21 21 21 21 21 21 21 21 22 22 22 22 22 22
8 8 7 6 6 6 6 6 6 6 6 7 7 7 7 8 8 9 9 10 10 11 12 13 14 15 15 16 16 17 18 17 16 14 13 14 14 15 16 16 16 15 15 16 16 16 16 17 19 20 20 20 21 22 22 21 20 20 21 21 21 21 22 22 22 22 22 22 22 22 22 21 21 21 21 21 22 22 23 23 23 23 23 23 24 24
7 7 7 6 6 6 6 6 6 7 7 7 7 8 8 8 9 9 10 11 12 13 14 15 16 17 18 19 20 20 21 20 19 18 17 17 17 18 18 18 18 17 16 16 17 17 17 17 19 20 19 19 18 19 21 22 23 22 22 22 22 22 22 22 22 22 21 22 22 22 22 21 21 22 22 22 23 23 23 23 23 23 23 23 23 24
7 7 6 6 6 6 7 7 7 7 7 8 8 9 9 10 10 11 11 12 13 14 15 15 16 17 18 20 22 23 23 24 24 23 23 22 21 21 20 20 20 19 18 17 18 18 17 17 15 14 16 18 20 21 22 23 23 23 24 24 23 23 23 23 22 21 21 21 22 22 23 23 22 22 22 22 21 21 21 20 20 21 21 21 22 22
7 7 7 7 7 7 7 7 8 8 8 9 9 10 10 11 11 12 12 12 13 14 14 15 16 17 18 21 22 23 24 25 26 27 27 25 24 23 22 22 21 21 20 19 19 18 18 17 16 15 15 18 20 23 23 23 23 23 24 25 25 25 24 22 21 21 21 22 22 23 23 23 22 21 21 21 20 20 20 20 20 20 19 19 20 21
7 7 7 7 7 7 8 8 8 9 9 10 10 11 11 11 11 11 11 12 12 13 14 15 15 17 18 19 20 21 22 24 25 25 26 26 25 24 22 22 21 21 20 20 19 18 18 19 19 20 20 19 20 22 23 24 24 24 24 24 24 24 24 23 22 22 22 22 22 22 22 22 21 21 20 20 20 20 20 20 20 20 20 19 19 19
7 7 8 8 8 8 8 8 9 9 10 10 10 10 10 10 10 11 11 11 11 12 13 13 14 15 17 17 18 19 20 21 22 23 24 25 25 25 24 23 22 21 20 20 19 19 19 19 20 21 22 21 22 23 24 25 25 25 24 23 23 25 26 26 25 24 23 22 21 21 21 21 21 21 21 21 21 21 21 21 21 21 21 21 20 20
8 8 8 8 8 8 9 9 9 10 10 10 10 10 10 10 10 10 11 11 12 12 12 12 13 14 16 16 17 17 17 18 19 20 21 22 23 23 23 23 22 21 21 20 20 20 20 21 21 21 22 22 22 22 23 25 25 25 24 24 25 26 27 26 24 22 20 20 21 21 21 22 22 22 22 22 22 22 22 22 22 22 22 22 21 21
7 8 8 8 8 9 9 9 10 10 9 9 9 10 10 10 10 10 11 12 12 12 12 12 13 14 15 16 16 16 16 16 16 16 17 18 19 20 21 22 22 22 21 21 21 21 21 21 22 22 22 22 21 22 23 25 25 25 25 24 24 23 21 23 23 22 21 21 22 22 22 22 22 22 22 22 22 22 22 22 23 23 23 23 22 22
8 8 8 8 9 9 9 9 9 9 9 10 10 10 10 10 10 11 11 12 12 13 13 13 13 14 15 16 17 16 16 15 14 14 15 16 17 18 19 20 21 21 21 21 21 21 22 22 22 22 22 21 21 22 23 24 25 25 25 25 24 23 22 24 25 25 24 23 23 22 22 22 22 22 22 22 22 22 22 22 23 23 23 23 23 23
8 8 8 8 8 9 9 9 10 10 10 10 11 11 11 10 10 11 11 12 12 13 13 13 13 13 14 15 16 16 16 15 15 14 14 15 15 16 17 18 19 20 20 21 21 21 21 21 23 23 22 22 21 22 23 24 25 26 26 25 25 24 25 26 25 25 24 24 23 23 22 22 22 22 22 23 23 23 23 22 22 23 23 23 23 23
8 8 8 8 8 9 10 10 10 10 10 11 11 11 11 11 11 11 12 12 13 13 13 13 12 13 14 15 16 16 16 16 16 15 15 14 14 14 15 16 17 18 19 20 21 22 22 23 24 24 23 23 23 23 24 24 24 24 25 25 24 24 25 25 25 24 23 23 23 23 23 22 22 22 22 23 23 24 24 23 23 23 23 23 23 23
7 8 8 8 9 9 10 10 10 10 11 11 11 11 11 11 11 12 12 12 12 13 13 13 13 13 14 15 15 16 16 17 17 17 16 16 15 15 15 15 16 16 17 19 20 22 23 25 25 25 24 23 23 23 24 24 23 23 24 24 24 23 24 24 24 24 24 23 24 24 24 23 23 23 23 24 25 25 25 24 23 23 23 23 23 23
8 8 8 9 9 10 10 10 10 11 11 11 11 11 11 11 11 12 12 13 12 12 13 13 13 14 15 15 15 16 16 17 18 18 18 17 17 16 16 15 16 16 17 18 20 21 23 25 26 26 25 24 23 23 24 24 24 23 24 23 23 23 23 25 25 25 24 24 24 25 24 22 21 22 23 24 24 25 25 24 23 22 22 22 23 23
8 8 8 9 9 10 11 10 11 11 11 11 12 12 12 12 12 12 12 13 13 13 13 13 13 14 14 15 15 16 16 17 18 18 18 18 17 17 17 16 17 17 18 19 19 20 21 23 24 24 24 24 24 24 25 25 24 24 23 23 22 23 23 24 25 25 25 25 25 25 24 22 21 22 22 22 23 25 26 25 24 23 21 21 22 22
8 8 8 9 9 10 11 11 11 11 11 12 12 13 13 13 13 12 12 13 13 13 13 13 14 14 15 15 16 16 16 17 17 18 18 18 18 17 17 18 18 19 19 19 19 19 19 20 20 20 21 22 23 24 25 25 25 24 23 22 22 22 23 23 24 25 25 25 25 25 24 23 22 22 22 22 23 24 26 25 24 23 21 20 20 21
8 8 9 9 10 10 11 11 11 11 12 12 13 13 13 13 13 13 13 12 13 13 13 14 14 14 15 16 17 17 17 17 17 18 18 18 18 18 18 18 18 18 18 18 18 17 16 16 16 17 19 19 19 20 22 23 24 23 23 23 22 22 22 23 24 25 25 25 25 25 24 23 22 21 20 20 21 22 23 24 25 24 22 20 20 20
Wind_Direction
246 249 254 260 263 265 270 273 277 281 285 290 292 295 297 299 299 299 299 300 300 299 297 294 292 291 290 290 292 293 295 296 298 299 300 301 300 300 298 297 296 294 293 292 291 290 289 288 287 286 286 285 285 284 284 284 283 283 282 281 281 281 281 281 281 282 282 282 282 282 281 281 280 280 280 280 279 279 280 279 280 279 280 279 279 279
243 248 255 260 262 266 271 273 275 278 283 287 291 294 297 298 298 298 298 298 297 296 294 293 292 291 291 291 292 294 295 297 299 300 302 302 301 300 298 296 295 293 292 291 290 289 289 288 287 287 286 285 284 284 284 284 284 283 283 282 281 281 281 281 281 281 281 281 281 281 281 281 280 280 280 279 279 279 279 279 279 279 279 278 278 278
238 250 256 258 260 264 271 275 277 278 281 286 289 292 295 296 296 296 297 297 296 294 293 292 292 292 292 293 293 295 296 298 301 302 303 303 302 300 298 296 295 293 292 291 290 289 289 288 288 287 287 286 285 285 285 284 284 284 285 284 283 282 282 281 281 281 281 281 281 281 281 281 280 279 279 279 279 279 279 278 278 278 278 278 278 278
250 258 262 263 263 265 270 276 278 279 281 284 287 290 292 294 294 295 294 295 295 294 292 292 292 293 294 294 295 297 299 301 302 303 304 304 303 301 299 297 295 294 293 292 291 290 289 289 288 288 287 286 286 286 286 286 285 285 286 286 285 285 284 283 282 282 282 282 283 282 282 282 282 281 281 280 280 279 279 278 278 278 277 277 277 277
257 262 266 269 271 273 276 278 279 280 282 284 286 289 291 292 293 294 294 294 293 293 293 293 294 294 295 296 297 299 301 302 302 303 303 304 304 304 302 299 297 296 295 294 293 292 291 290 289 289 288 287 287 287 286 287 286 286 287 287 287 287 286 286 285 285 285 285 285 285 284 284 284 283 282 282 281 281 280 279 278 278 277 277 277 277
264 265 268 271 273 277 280 279 279 280 283 285 287 289 291 292 294 294 293 294 294 294 294 295 295 296 296 297 298 300 301 301 301 301 302 304 304 305 303 301 298 297 295 294 293 292 292 291 290 289 289 288 288 287 287 287 287 287 287 287 288 287 287 287 287 287 286 286 286 286 285 285 284 283 282 282 281 281 280 280 279 278 277 277 276 276
269 268 267 268 271 274 276 277 277 279 282 286 291 294 294 295 294 293 292 293 294 295 295 296 296 297 297 297 298 300 300 300 300 300 300 301 302 301 300 298 296 295 294 293 293 292 291 291 290 289 289 288 288 287 287 287 287 287 287 288 288 288 288 287 287 287 286 286 286 285 285 284 284 283 282 282 281 281 280 279 279 278 277 276 276 276
267 267 264 264 268 272 275 275 276 279 283 288 294 297 298 298 296 294 293 292 293 294 296 297 298 297 297 298 298 299 299 299 299 299 299 299 299 298 296 295 294 294 293 292 292 291 291 290 290 289 289 288 288 287 287 287 288 288 288 288 288 288 288 287 287 287 287 286 286 285 285 284 283 282 282 281 281 280 279 279 278 278 277 276 276 275
260 265 266 263 266 273 278 279 280 283 287 290 292 296 298 299 298 297 295 293 293 294 296 298 298 297 297 298 298 298 297 296 296 297 297 296 296 296 296 295 294 293 293 292 291 291 290 290 290 289 289 288 288 288 288 288 288 289 289 289 289 289 289 288 288 287 287 287 286 285 284 284 283 282 282 281 280 279 278 278 277 277 276 276 275 275
251 259 265 265 267 271 275 279 283 287 288 287 287 288 291 294 296 297 296 295 295 296 296 297 297 297 298 298 298 298 297 296 295 294 293 294 294 295 296 296 295 294 293 293 292 292 291 290 290 290 290 290 289 289 289 289 290 290 290 290 290 290 290 289 289 288 288 287 286 286 285 284 283 282 281 280 279 278 278 277 277 276 276 275 275 274
251 255 260 268 271 272 272 277 284 287 286 284 284 283 283 284 289 294 297 298 300 300 299 297 296 296 297 298 299 299 297 297 296 295 295 295 295 296 296 296 296 295 295 295 294 292 292 291 291 291 291 290 290 290 291 291 291 291 291 291 291 291 291 290 290 289 288 288 287 286 285 284 283 282 281 280 279 279 278 277 277 276 275 274 274 274
255 259 264 271 276 280 280 283 285 284 280 279 282 284 284 285 289 294 298 299 301 301 300 298 296 295 295 297 298 298 297 297 297 297 298 299 299 300 300 300 299 298 297 297 295 294 293 293 293 292 292 292 292 292 292 293 293 293 293 293 292 292 292 291 291 290 289 289 288 287 286 285 284 283 282 281 280 279 279 278 277 276 275 274 273 273
255 262 268 273 277 281 283 286 286 283 279 278 282 287 290 292 294 295 294 294 295 297 299 299 298 297 296 295 296 296 296 295 296 297 299 300 301 302 303 303 302 301 300 298 297 295 295 295 294 293 293 293 294 294 294 294 293 293 293 293 293 292 292 292 291 290 290 289 288 287 287 286 285 284 283 282 280 279 279 278 277 276 275 274 273 273
260 263 268 273 276 279 280 283 285 286 287 287 288 289 291 292 293 292 290 289 291 295 299 299 299 299 298 296 294 294 294 295 296 297 299 299 301 302 303 303 302 301 299 298 296 295 295 296 295 295 294 294 294 293 293 293 293 293 292 292 292 292 292 292 291 291 290 290 289 288 288 287 286 285 284 283 281 280 279 278 277 276 275 274 273 273
265 268 271 276 279 281 283 287 290 291 290 289 289 289 289 289 289 289 290 291 295 300 302 301 300 299 298 296 295 295 295 296 297 299 299 299 300 302 303 303 301 300 298 296 295 294 295 295 295 294 294 293 293 292 292 292 292 292 292 292 293 293 293 292 292 291 291 290 290 289 288 287 287 286 285 284 282 281 279 278 277 276 275 275 274 273
269 270 272 277 280 283 287 291 292 290 287 286 285 285 285 286 287 289 292 295 299 301 302 302 302 301 299 297 296 296 297 298 299 301 301 301 300 302 304 303 301 299 297 295 294 295 296 295 294 293 293 292 292 292 292 292 292 292 292 293 293 293 293 293 292 292 291 290 290 289 288 288 287 286 285 285 284 282 280 279 278 277 276 275 274 274
269 269 271 276 280 284 286 287 285 283 283 283 283 283 284 286 289 292 293 295 296 297 296 298 300 301 302 301 299 300 302 304 304 303 303 301 300 301 303 302 300 298 296 294 293 294 296 294 293 293 293 292 292 292 292 292 292 292 292 292 292 292 293 293 292 292 291 291 290 289 289 288 287 286 285 285 284 283 282 281 279 278 277 276 275 274
264 266 271 276 280 282 284 283 283 283 284 286 287 287 287 288 289 290 289 288 288 288 290 290 292 294 296 298 298 301 308 309 308 306 304 300 299 300 302 301 298 296 294 292 293 294 295 294 293 292 291 291 291 292 292 292 291 292 292 292 292 292 292 292 292 292 291 291 290 290 289 289 288 287 286 285 284 282 282 281 280 279 278 277 276 275
265 269 273 276 279 280 281 282 283 285 287 289 291 292 291 289 287 285 283 280 280 282 285 286 286 287 290 291 294 300 307 309 309 306 303 299 298 299 301 300 298 295 293 292 293 294 294 293 292 291 291 291 291 291 291 291 292 292 292 292 292 293 293 292 292 292 291 291 290 290 289 289 288 287 286 284 283 282 281 281 280 279 278 278 277 276
273 273 274 276 279 280 280 280 281 283 287 290 292 291 290 288 285 282 280 278 277 278 280 282 282 284 286 289 293 299 305 308 307 304 300 297 296 298 300 300 298 295 293 292 293 294 293 293 293 292 292 292 292 292 292 292 292 292 292 293 292 292 292 292 292 292 291 291 290 289 289 288 288 287 286 285 284 283 282 281 280 279 278 277 276 275
277 276 276 279 281 282 280 279 280 282 286 289 290 288 286 284 282 279 277 276 277 277 278 278 280 284 287 290 293 297 302 304 303 300 298 296 295 296 298 298 296 294 292 292 293 293 293 293 293 292 292 292 292 292 292 292 292 292 292 292 292 292 292 292 292 291 291 291 290 289 288 288 287 286 286 285 284 283 282 281 280 279 278 277 276 275
279 279 280 281 280 279 278 279 280 283 285 285 283 280 279 278 278 277 276 277 279 280 280 281 283 286 288 289 291 294 297 297 295 293 294 292 291 293 296 298 296 293 292 292 294 295 294 294 293 293 292 292 292 292 292 292 292 292 292 292 292 292 292 292 292 291 291 290 290 289 288 287 286 286 285 285 284 283 282 282 281 280 279 278 277 276
278 279 280 279 277 275 276 278 279 280 280 276 274 272 270 270 272 275 278 281 284 286 287 287 287 287 287 287 289 291 292 289 286 284 286 286 288 291 296 298 296 293 291 292 295 296 296 295 294 293 293 293 293 293 292 292 292 292 292 292 292 292 292 291 291 291 290 290 289 288 288 287 287 286 286 286 285 284 283 283 282 281 280 279 278 277
277 277 278 277 275 274 275 276 277 277 278 276 274 273 274 275 279 284 287 288 288 288 288 288 288 288 287 287 288 289 289 286 282 278 278 281 285 290 295 297 296 293 292 294 296 297 297 296 294 294 294 293 293 293 292 292 291 291 291 291 291 291 291 291 291 291 290 290 289 289 288 288 287 287 287 286 285 285 284 283 282 281 280 279 277 276
275 276 276 276 275 274 275 276 278 280 283 286 289 292 294 293 292 290 289 287 286 286 286 287 287 287 288 290 291 290 289 286 279 273 272 278 284 288 293 295 294 293 294 295 297 298 297 296 295 295 294 294 293 293 292 291 291 290 290 290 290 290 290 291 291 291 290 290 289 289 289 288 288 287 287 286 286 285 284 283 283 282 281 279 278 276
270 271 273 273 274 274 273 275 278 280 283 287 291 293 295 295 293 290 287 284 283 283 284 284 284 285 288 290 291 290 290 287 280 271 270 278 284 287 291 294 293 293 294 296 298 298 298 297 296 296 295 293 293 292 292 291 291 290 290 290 290 290 290 290 290 290 290 289 289 289 289 288 288 287 287 286 286 285 284 283 283 282 281 281 280 278
266 265 267 269 271 272 273 275 277 279 280 281 283 286 289 290 288 285 281 280 280 281 281 281 283 286 288 289 288 288 290 289 283 275 272 275 280 284 289 293 295 295 296 297 298 298 297 296 295 295 294 293 292 292 292 291 291 291 291 290 290 290 290 289 289 289 289 289 289 289 288 288 288 287 287 286 286 285 284 283 283 283 283 282 281 279
271 270 272 274 274 275 276 277 278 279 280 281 281 282 282 281 278 274 272 274 277 278 276 276 279 283 287 288 288 289 290 287 281 276 272 272 274 279 287 294 297 298 298 298 298 298 296 293 292 292 292 292 292 293 293 293 293 292 292 291 291 290 290 289 289 289 289 289 289 289 288 288 288 287 287 286 286 285 285 284 284 284 284 283 282 280
283 285 288 287 285 282 280 280 281 281 282 282 281 278 274 269 265 264 266 270 272 272 270 270 273 277 282 286 289 290 289 283 277 272 270 271 273 279 288 295 298 299 301 301 301 300 296 292 291 291 291 292 294 295 295 295 295 294 293 293 292 291 291 291 290 290 291 290 290 289 288 288 288 287 287 286 286 285 285 285 285 285 284 283 281 279
286 289 291 290 287 285 282 282 283 284 284 283 280 275 267 259 256 257 261 264 265 264 265 268 270 274 279 285 290 290 287 281 275 271 272 275 278 284 292 295 297 299 302 304 305 303 299 297 295 293 293 294 295 296 296 296 296 295 295 294 294 293 292 293 292 292 292 292 291 290 289 289 288 287 286 286 286 285 285 285 285 285 284 282 280 278
289 290 290 289 288 286 283 283 284 285 285 283 279 271 262 255 253 254 256 257 257 258 262 265 268 271 273 279 284 286 283 282 282 285 287 283 283 287 293 295 295 296 298 300 301 303 303 302 300 299 298 298 298 297 296 296 295 295 295 295 295 294 294 294 294 294 294 293 292 291 290 289 288 287 287 286 285 285 284 284 284 283 282 281 279 277
292 293 292 292 291 288 286 284 284 284 283 280 275 268 260 256 254 254 255 254 254 255 259 263 266 267 267 267 266 268 274 279 284 288 291 286 285 287 291 291 292 294 294 291 287 285 293 298 300 301 301 300 298 297 296 296 295 294 295 295 295 295 296 296 296 296 295 294 293 292 291 290 288 287 286 285 284 283 283 283 282 281 280 279 278 277
294 294 293 293 291 289 286 283 282 281 281 279 275 270 265 261 259 257 256 255 254 255 257 261 264 266 266 265 264 266 270 275 279 284 286 283 283 286 289 290 291 292 293 290 284 280 279 284 292 297 299 299 298 296 296 296 295 295 295 295 294 294 296 297 297 296 295 295 294 293 292 290 289 287 286 285 284 283 282 282 281 279 277 276 275 275
295 294 294 293 291 289 286 283 282 282 282 280 278 276 272 268 265 262 259 258 257 256 256 258 261 264 266 267 268 268 270 273 277 282 284 283 283 285 288 289 290 291 292 291 288 284 281 282 287 293 297 298 298 297 296 296 296 295 295 294 294 295 296 297 297 296 295 295 294 293 292 291 289 288 287 285 284 283 282 281 280 279 276 274 272 272
297 296 296 295 293 291 290 288 287 286 285 283 282 279 276 273 270 267 264 262 260 258 257 257 257 259 262 265 269 271 273 275 278 283 285 284 284 285 287 286 286 288 289 289 289 288 287 286 288 290 294 297 298 297 297 296 297 297 296 295 294 294 295 295 295 295 294 293 292 291 290 290 289 288 287 286 285 284 283 282 281 280 277 274 272 271
298 298 298 297 296 295 294 294 292 291 290 288 286 284 281 278 275 272 269 267 264 262 260 259 258 258 258 260 264 268 272 276 280 283 283 282 282 283 284 283 283 284 285 285 285 286 287 288 289 290 292 294 296 297 298 299 299 299 298 297 296 295 294 294 294 293 292 291 290 289 288 288 288 287 287 286 285 285 285 284 283 280 278 276 273 271
298 298 298 298 298 298 298 298 297 296 294 293 291 289 286 283 281 278 275 272 269 267 265 264 262 260 259 260 262 265 270 274 278 279 279 278 278 278 278 279 280 280 279 280 281 283 285 287 289 290 290 289 291 294 298 301 302 301 299 298 297 296 295 294 292 291 289 288 287 287 287 287 287 287 287 287 286 286 285 283 282 281 279 277 274 272
297 297 297 298 300 301 301 301 300 299 297 296 294 293 290 287 284 282 279 276 273 272 270 269 266 265 264 263 264 267 270 273 275 276 276 276 275 274 274 275 276 276 273 273 275 278 280 283 286 288 288 288 289 291 294 298 300 300 299 298 297 296 294 293 292 290 289 288 287 287 287 287 287 287 287 287 287 286 284 283 282 281 280 278 276 273
296 296 296 299 301 302 302 300 300 299 298 297 295 294 292 290 287 285 282 279 276 273 272 270 270 269 269 269 269 270 271 273 275 276 277 276 274 272 270 271 273 274 273 271 271 271 273 275 277 280 283 287 289 291 292 294 295 296 298 299 299 297 294 293 292 291 290 289 288 288 287 286 286 285 285 285 284 283 282 282 281 280 280 279 278 277
295 296 297 299 300 301 300 299 299 299 299 297 296 295 293 292 290 287 284 281 279 277 275 274 274 274 273 273 272 272 273 274 276 278 278 277 275 271 268 267 269 272 273 272 270 268 268 269 272 275 277 280 284 288 290 291 292 293 296 297 297 296 296 295 294 292 290 288 287 286 285 285 284 284 283 283 282 280 280 279 279 279 279 278 278 278
294 296 297 298 299 299 298 298 298 298 298 298 297 296 295 294 292 291 290 287 285 283 282 281 281 280 279 277 275 274 274 275 276 276 276 276 275 273 269 267 267 269 271 271 270 268 267 268 271 273 275 277 280 283 285 287 288 290 291 291 291 292 294 294 293 292 290 287 285 284 284 285 285 285 284 283 281 279 278 276 276 277 277 276 274 274
293 295 296 298 299 299 298 298 298 299 298 297 296 295 294 294 293 293 293 293 291 290 288 287 287 287 286 284 283 281 278 277 276 276 276 276 275 273 270 267 266 267 268 270 270 270 269 269 270 272 274 276 278 281 284 285 286 288 287 287 288 291 293 293 292 291 289 287 286 286 286 285 285 285 284 282 280 278 277 275 273 273 273 272 270 268
292 294 295 296 296 297 298 298 299 299 299 298 296 295 294 294 293 293 293 293 293 292 292 291 290 290 290 290 290 290 287 283 280 278 277 276 275 273 270 267 266 265 266 267 269 270 271 271 271 270 272 274 275 277 281 284 286 287 286 286 287 290 292 292 292 292 290 288 287 286 285 284 283 283 282 281 280 278 277 275 274 273 270 269 268 266
293 295 295 295 296 298 299 300 301 300 300 298 297 295 294 294 293 292 292 291 292 292 293 293 293 292 291 291 293 295 294 292 289 285 281 277 276 274 272 269 267 265 263 263 264 269 275 275 274 273 273 273 274 275 278 281 284 285 285 285 284 283 283 286 289 290 290 287 285 284 283 282 282 283 283 282 280 279 277 275 274 272 270 268 266 264
293 294 295 296 298 300 302 302 302 300 299 298 296 295 294 293 293 292 291 290 291 292 292 294 294 294 292 293 295 298 299 299 297 293 289 286 283 279 275 271 268 266 264 263 263 265 269 273 276 278 277 276 274 273 275 278 280 282 283 283 283 281 280 282 284 286 286 286 285 284 283 283 283 284 284 283 281 280 278 275 273 271 269 267 265 263
292 293 294 297 300 301 301 302 301 299 297 296 295 294 293 294 293 291 289 288 289 290 291 291 291 290 290 293 296 299 300 300 300 299 296 294 290 286 280 275 272 270 268 266 266 266 266 269 273 277 279 278 276 274 273 274 276 279 281 282 283 283 283 283 284 284 284 285 285 285 285 285 285 284 283 282 282 281 280 277 274 272 270 268 265 263
292 294 296 299 300 301 301 301 300 298 296 295 294 294 293 292 292 290 288 286 285 287 289 289 287 285 286 289 292 295 297 299 300 301 300 299 297 294 289 285 280 277 274 272 271 270 269 269 270 272 274 276 277 277 276 275 275 276 278 281 282 283 284 285 285 285 285 285 285 285 286 286 286 285 284 283 284 284 283 280 277 273 270 268 266 264
292 294 296 298 300 300 300 300 298 296 294 294 294 294 294 291 289 288 287 286 285 285 286 287 286 285 285 287 289 290 293 295 296 298 300 301 300 298 296 293 291 287 283 280 277 275 273 272 270 269 268 269 272 274 276 276 276 275 277 279 281 282 283 284 286 287 287 286 285 285 285 283 282 282 284 285 285 285 285 283 281 277 273 269 268 266
290 291 293 296 298 298 298 296 296 295 293 294 295 295 295 292 289 287 285 286 285 284 283 283 284 285 286 287 288 290 291 292 294 295 297 299 300 300 299 299 298 296 294 290 286 283 280 277 274 269 265 263 265 269 273 275 276 276 277 278 279 280 281 284 286 289 289 289 288 288 286 284 281 281 282 284 285 286 287 286 285 281 277 273 270 268
288 289 291 294 294 294 294 293 292 292 292 293 294 294 294 294 292 288 285 284 282 281 280 279 281 284 286 287 288 290 291 292 292 293 295 297 299 300 300 301 301 301 301 298 295 293 291 289 285 280 272 265 263 264 268 273 276 278 279 279 279 280 282 284 287 290 291 292 292 292 290 287 284 282 283 282 283 286 288 288 287 285 282 278 274 270
288 289 291 291 290 289 288 288 289 289 289 290 291 292 292 292 292 290 287 285 282 279 279 278 278 280 284 286 287 288 289 289 289 290 292 295 297 298 298 299 300 300 301 300 299 299 299 298 296 294 290 281 272 267 267 272 277 281 283 282 282 283 284 285 288 290 292 293 293 293 292 290 288 285 282 281 282 285 288 289 289 288 286 284 280 276
Height
815 815 816 816 816 816 817 817 817 816 815 815 814 814 814 813 812 812 811 810 809 809 808 807 807 806 805 804 804 803 802 801 800 799 799 798 797 796 795 795 794 794 794 793 793 793 793 792 792 792 791 791 791 790 790 789 789 788 788 787 787 786 786 785 785 784 784 784 783 783 782 782 781 781 780 780 779 779 779 778 778 777 777 776 776 775
814 814 815 815 815 816 816 816 816 816 815 814 814 813 812 812 811 810 809 809 808 808 807 806 805 805 804 803 802 801 800 799 799 798 797 796 795 794 794 793 793 792 792 792 791 791 791 790 790 790 789 789 789 788 788 787 787 786 786 785 785 784 784 783 783 782 782 781 781 780 780 780 779 779 778 778 778 777 777 776 776 775 775 774 774 774
814 814 814 814 814 815 815 815 815 815 814 814 813 812 811 811 810 809 808 808 807 807 806 805 804 804 803 802 801 800 799 798 797 796 795 794 793 793 792 792 791 791 790 790 789 789 789 789 789 788 788 787 787 786 786 785 785 784 784 783 783 782 782 781 781 780 780 779 779 779 778 778 777 777 776 776 775 775 774 774 774 773 773 772 772 771
813 813 813 814 814 814 814 814 814 814 813 813 812 811 810 809 809 808 807 807 806 805 805 804 804 802 801 800 799 798 797 796 795 794 793 793 792 791 791 790 789 789 789 788 788 788 788 787 787 786 786 786 785 784 784 784 783 782 782 781 781 780 779 779 779 778 778 777 777 776 776 775 775 775 774 774 773 773 773 772 772 771 770 770 769 769
812 813 813 813 813 814 814 814 814 813 812 812 811 810 809 808 808 807 806 806 805 805 804 803 802 801 800 799 797 796 795 794 794 793 792 791 790 790 789 789 788 788 787 787 787 786 786 785 785 785 784 784 783 783 782 781 781 780 780 779 779 778 778 777 777 776 776 775 775 774 774 774 773 773 772 772 771 771 770 770 769 769 768 768 768 767
812 812 812 812 813 813 813 813 813 812 812 811 810 809 808 807 807 806 806 805 804 804 803 802 801 799 798 797 796 794 794 793 792 791 790 790 789 788 788 787 787 786 786 785 785 785 784 784 784 783 782 782 781 780 780 779 779 778 778 777 777 776 775 775 774 774 774 773 773 772 772 771 771 771 770 769 769 769 768 768 767 767 766 766 765 765
811 811 811 811 812 812 812 812 812 811 811 809 808 807 807 806 806 806 805 805 804 803 802 800 799 798 797 796 794 794 793 792 791 790 789 789 788 787 787 786 786 785 785 784 784 783 783 782 782 781 780 780 779 779 778 777 777 776 775 775 774 774 774 773 773 772 772 771 771 770 770 769 769 769 768 768 767 766 766 765 765 764 764 764 763 763
810 810 810 811 811 811 811 811 811 810 809 809 807 806 806 805 805 805 804 804 803 802 801 799 798 797 796 795 794 793 792 791 790 789 788 788 787 786 786 785 784 784 783 783 782 781 781 780 779 779 778 778 777 776 775 775 774 774 773 773 772 772 771 771 770 770 769 769 769 768 768 767 767 766 766 765 765 764 764 763 763 762 762 761 761 761
809 809 809 810 810 810 810 810 809 809 808 807 806 806 805 805 804 804 804 803 802 801 800 799 797 796 795 794 793 792 791 790 789 788 787 787 786 785 784 784 783 782 782 781 780 779 779 778 778 777 776 775 774 774 773 773 772 772 771 770 770 769 769 769 769 768 768 767 767 766 766 765 765 764 764 763 763 762 761 761 761 760 760 759 759 759
809 809 809 809 809 809 809 809 808 808 807 806 806 805 805 804 804 803 802 802 801 800 799 798 797 795 794 793 792 791 790 789 788 787 786 786 785 784 783 783 782 781 780 779 778 778 777 776 775 774 774 773 772 772 771 770 770 769 769 768 768 768 767 767 766 766 766 765 765 764 764 763 763 762 762 761 760 760 759 759 758 758 757 757 757 756
808 808 808 808 808 808 808 807 807 806 805 805 805 805 804 804 804 803 801 800 800 799 798 797 796 795 793 792 791 790 789 788 787 786 785 785 784 783 782 781 780 779 779 778 777 776 775 774 774 773 772 771 770 769 769 768 768 767 767 766 766 766 765 765 764 764 764 763 763 762 762 761 761 760 759 759 758 758 757 756 756 755 755 754 754 754
807 807 807 807 807 807 807 806 805 805 804 804 804 804 804 803 803 802 801 800 799 798 797 796 795 794 793 791 790 789 788 787 786 785 784 784 783 782 781 780 779 779 778 777 775 774 774 773 772 771 770 769 768 767 767 766 766 765 765 765 764 764 764 763 763 762 762 761 761 760 760 759 759 758 757 756 756 755 754 754 754 753 753 752 752 751
806 806 806 806 806 806 805 805 804 804 803 803 803 803 803 802 802 802 801 800 799 798 796 795 794 793 792 791 789 788 787 786 785 785 784 783 782 782 781 780 779 778 776 775 774 773 772 771 770 769 768 767 766 765 765 764 764 764 764 763 763 762 762 762 761 761 760 759 759 758 758 757 756 755 755 754 754 753 752 752 751 751 750 750 749 749
805 805 805 805 805 804 804 803 803 802 802 802 802 802 802 802 801 801 800 799 798 797 796 794 793 792 791 790 789 788 787 786 785 784 783 782 782 781 780 779 778 776 775 774 773 771 770 769 768 767 766 765 764 764 764 763 763 762 762 762 761 761 760 760 759 759 758 757 757 756 755 754 754 753 753 752 751 750 750 749 749 748 748 747 747 746
804 804 804 804 804 803 803 802 802 802 802 802 802 802 801 801 800 800 799 798 797 796 795 794 793 791 790 789 788 787 786 785 784 783 782 781 781 780 779 778 777 775 774 773 771 770 769 768 766 765 764 764 763 763 762 762 761 761 760 760 759 759 759 758 757 756 756 755 754 754 753 752 752 751 750 749 749 748 748 747 746 746 745 745 744 744
803 803 803 803 802 802 802 802 802 802 802 801 801 801 800 800 799 799 798 797 796 796 795 794 792 790 789 788 787 786 785 784 784 783 781 780 779 779 778 777 775 774 773 771 770 768 767 766 765 764 763 762 761 761 760 760 759 759 759 758 757 757 756 756 755 754 754 753 752 752 751 750 749 749 748 747 747 746 745 745 744 744 743 742 742 741
802 802 802 802 801 801 801 801 801 801 801 800 800 800 799 799 799 798 798 797 796 795 794 793 792 790 788 786 786 785 785 784 783 782 781 779 778 778 777 776 774 773 771 770 768 767 766 765 764 763 762 761 760 759 759 758 758 757 756 756 755 754 754 753 753 752 751 751 750 749 749 748 747 746 746 745 744 744 743 742 742 741 740 740 739 739
801 801 801 801 801 801 800 800 800 800 800 799 799 799 799 798 798 798 797 796 796 794 793 793 791 790 788 786 785 784 784 783 782 781 780 779 777 776 776 775 774 772 770 768 767 766 765 764 763 761 760 759 759 758 757 756 756 755 754 754 753 752 752 751 750 750 749 748 747 747 746 745 745 744 743 743 742 741 740 740 739 739 738 737 737 736
800 800 800 800 800 800 799 799 799 799 799 799 799 799 798 798 797 797 796 795 794 794 793 791 790 789 787 785 784 784 784 783 782 781 779 778 776 775 774 774 772 771 769 767 766 765 764 763 761 760 759 758 757 756 755 754 754 753 752 752 751 750 749 749 748 747 746 746 745 744 744 743 742 741 741 740 739 739 738 737 737 736 735 735 734 734
799 799 799 799 799 799 799 799 799 799 799 799 799 798 797 797 796 796 795 794 793 792 791 790 789 788 787 785 784 783 783 782 781 780 779 777 775 774 773 772 771 769 768 766 765 764 763 761 760 759 757 756 755 754 754 753 752 751 750 749 749 748 747 746 745 745 744 743 743 742 741 740 739 739 738 738 737 736 735 735 734 734 733 732 732 731
798 798 798 798 798 798 798 798 798 799 799 798 798 797 796 796 795 794 793 793 792 791 790 789 788 787 786 784 783 782 782 782 781 779 778 776 774 773 772 771 770 769 767 765 764 763 762 760 759 757 756 755 754 753 752 751 750 749 748 747 746 745 745 744 743 742 742 741 740 739 739 738 737 736 736 735 734 734 733 732 731 731 730 729 729 728
797 797 797 798 798 798 798 798 798 798 798 798 797 796 795 794 794 793 792 791 790 790 789 788 787 786 785 784 782 781 781 781 780 779 778 776 773 771 771 770 769 768 766 764 763 762 760 759 758 756 754 753 752 751 750 749 748 747 746 745 744 743 743 742 741 740 739 739 738 737 736 735 734 734 733 732 732 731 730 729 729 728 727 727 726 725
797 797 797 797 797 797 797 797 797 797 797 796 795 795 794 793 792 791 791 790 789 789 788 787 786 785 784 782 781 780 780 779 779 779 777 775 772 770 770 769 769 767 765 763 762 760 759 758 756 754 753 751 750 749 748 747 746 745 744 743 742 741 740 739 739 738 737 736 735 734 734 733 732 731 730 729 729 728 728 727 726 725 724 724 723 722
796 796 796 796 796 796 796 796 796 795 795 794 794 793 792 792 791 790 790 789 788 788 787 786 784 783 782 781 780 779 779 778 778 778 777 774 772 770 769 769 768 766 764 762 761 759 758 756 754 753 751 749 748 747 746 745 744 743 742 741 740 739 738 737 736 735 735 734 733 732 731 730 729 729 728 727 726 725 725 724 723 723 722 721 720 720
795 795 795 795 795 795 795 794 794 794 794 793 792 792 791 791 790 789 789 788 787 787 786 784 783 782 780 779 779 778 777 777 777 776 776 774 771 769 768 768 767 765 763 761 760 759 757 754 753 751 749 748 746 745 744 743 742 741 740 739 738 737 736 735 734 734 732 731 730 730 729 728 727 726 725 724 724 723 722 721 721 720 719 718 718 717
794 794 794 794 794 794 794 793 793 793 792 792 792 791 790 790 789 788 788 787 786 785 784 784 782 781 779 779 778 777 776 776 776 775 774 773 770 768 767 767 766 764 762 760 759 757 756 753 751 749 748 746 744 743 742 741 740 739 738 737 736 735 734 733 732 731 730 729 728 727 726 725 724 724 723 722 721 720 720 719 718 717 716 716 715 714
793 793 793 793 793 792 792 792 791 791 791 790 790 790 789 789 788 787 786 785 785 784 784 783 781 780 779 778 777 776 775 775 774 774 773 772 770 768 766 766 765 763 761 759 757 756 754 752 750 748 746 744 743 742 740 739 739 738 736 735 734 733 732 731 730 729 728 727 726 725 724 723 722 721 720 720 719 718 717 716 716 715 714 713 712 711
791 791 791 791 791 790 790 790 789 789 789 789 788 788 788 788 787 786 784 784 784 784 783 782 781 780 778 777 776 775 774 774 773 773 772 771 769 767 765 764 764 763 760 758 756 754 753 751 749 747 745 743 742 740 739 738 737 736 734 733 732 731 730 729 728 726 725 724 723 722 721 720 720 719 718 717 716 715 715 714 713 713 712 711 710 708
790 790 789 789 789 789 788 788 787 787 786 786 786 786 786 786 785 784 783 783 783 783 782 781 780 779 778 777 775 774 774 773 772 771 771 770 768 766 765 764 763 762 760 758 755 752 750 749 747 745 744 742 741 740 738 737 735 734 732 731 729 729 727 726 725 724 723 722 721 720 719 718 717 716 715 715 714 713 712 712 711 710 710 708 707 706
789 789 788 788 787 787 787 786 785 785 784 784 784 784 784 783 783 783 782 782 782 781 781 780 779 779 778 776 775 773 772 771 770 770 770 769 767 765 764 763 762 761 760 758 755 751 748 746 745 744 743 741 740 739 737 735 734 732 730 729 727 726 725 724 723 722 721 720 719 718 717 716 715 714 713 712 711 710 710 709 709 708 707 706 705 704
789 788 787 787 786 786 785 784 784 783 783 782 782 782 782 782 781 781 781 781 781 780 780 779 778 778 777 776 775 772 770 769 769 769 769 768 766 764 763 762 761 760 760 759 757 753 747 744 742 742 742 741 739 737 736 734 733 731 729 727 725 724 723 722 721 720 719 717 716 715 714 713 712 711 710 710 709 708 707 707 707 706 705 704 703 702
787 787 786 785 785 784 784 783 783 782 782 781 781 781 780 780 780 780 780 779 779 779 779 778 777 777 776 775 774 772 769 769 768 769 768 768 765 764 763 762 760 759 759 759 758 755 751 745 741 740 740 739 738 736 734 733 731 729 728 726 724 722 721 720 719 718 716 715 714 713 712 711 710 709 708 707 706 706 705 705 704 704 703 702 701 700
786 786 785 784 784 783 783 782 782 781 781 781 780 780 780 779 779 779 779 779 778 778 777 777 776 775 775 774 773 771 769 768 767 767 768 767 765 763 762 761 759 758 758 757 756 755 752 748 743 740 739 737 736 734 732 731 729 728 726 724 723 720 719 718 717 716 715 713 712 710 710 709 707 706 705 705 704 703 702 702 702 701 701 700 699 698
785 784 784 784 783 782 782 782 781 781 780 780 779 779 779 779 778 778 777 777 777 777 776 776 775 774 774 772 771 769 767 767 766 767 766 766 764 762 761 760 759 758 757 755 754 753 750 748 745 742 738 735 734 733 731 729 728 726 725 723 721 720 718 717 716 714 713 711 710 709 707 706 705 704 703 702 701 701 700 700 699 699 699 698 697 696
784 784 783 783 782 782 781 781 780 780 779 779 779 778 778 778 777 777 776 776 775 775 775 774 774 773 772 771 769 768 766 765 765 766 765 765 764 762 760 759 758 757 756 754 753 751 749 746 744 742 739 735 732 730 729 728 726 724 723 722 720 719 717 715 714 713 711 710 708 707 705 704 703 702 701 700 699 699 698 697 697 696 696 695 695 694
783 783 782 782 781 781 780 780 779 779 779 778 778 777 777 777 776 775 775 774 774 774 773 773 772 771 771 770 769 767 764 764 764 764 764 764 763 761 759 758 757 756 755 754 752 750 748 745 743 741 739 735 731 728 726 725 724 723 722 720 719 717 716 714 713 712 710 708 706 705 704 703 701 700 699 698 697 696 695 695 695 694 693 693 692 692
783 782 782 781 781 780 780 779 779 779 778 778 777 777 776 775 775 774 774 773 773 772 771 771 770 769 769 768 767 765 764 763 762 762 762 762 761 760 759 756 755 755 754 753 751 749 747 745 742 739 737 735 732 728 725 723 722 721 720 718 717 715 714 712 711 710 709 707 705 703 702 701 700 699 697 696 695 694 693 692 692 691 690 690 689 689
782 781 781 780 780 779 779 779 778 778 777 777 776 775 775 774 774 773 773 772 771 770 770 769 768 767 767 766 764 763 762 761 760 760 760 760 759 759 757 755 754 753 752 751 749 748 746 744 741 738 735 733 730 728 725 723 721 720 718 716 715 714 712 710 709 708 707 705 703 702 700 699 698 697 695 694 693 692 691 690 689 688 688 687 686 685
781 781 780 780 779 779 779 778 777 777 776 776 775 774 774 773 773 772 771 770 770 769 768 768 767 766 764 764 763 762 760 759 758 757 757 757 757 756 755 754 752 750 750 749 748 747 745 743 740 738 735 732 729 726 724 723 721 719 717 715 713 711 710 709 708 706 705 703 702 700 698 697 696 695 694 692 691 690 689 688 687 686 685 685 683 682
781 780 780 779 779 778 778 777 777 776 775 775 774 774 773 772 771 770 770 769 769 768 767 766 765 764 763 762 761 759 759 757 756 755 755 754 754 754 753 752 750 749 748 747 746 744 743 741 739 736 734 732 729 726 724 722 720 718 717 714 711 708 707 706 705 704 703 701 700 698 696 695 694 693 692 690 690 689 687 686 685 684 683 683 682 680
780 779 779 779 778 778 777 777 776 775 775 774 773 773 772 771 770 769 769 768 767 766 765 765 764 763 761 760 759 758 757 755 754 754 753 752 751 751 750 749 748 747 746 745 743 742 741 739 737 734 732 730 728 725 723 720 719 717 716 714 710 707 705 704 703 702 701 699 698 696 695 693 692 691 690 689 687 686 685 684 683 682 681 680 680 679
779 779 779 778 777 777 776 776 775 774 774 773 772 772 771 770 769 769 768 767 766 765 764 764 763 761 760 758 757 756 755 754 753 752 751 750 749 749 748 747 746 745 744 743 741 739 738 737 735 733 730 729 727 724 721 718 716 715 715 712 709 706 704 701 701 700 699 697 696 695 693 692 690 689 687 686 685 684 683 682 681 680 679 678 677 676
779 778 778 777 777 776 775 775 774 774 773 772 772 771 770 769 769 768 767 766 765 764 763 763 762 760 759 757 755 754 753 752 751 750 749 748 748 747 746 745 744 743 742 741 739 737 735 734 733 730 728 727 725 723 720 716 715 713 712 710 709 706 703 699 697 697 697 695 694 692 691 690 688 686 685 684 682 681 680 679 678 677 676 675 674 673
778 778 777 777 776 775 775 774 774 773 772 772 771 770 769 769 768 767 766 765 764 763 763 762 760 759 758 756 754 752 751 750 749 749 748 747 746 745 744 743 742 741 740 739 737 735 733 731 730 728 726 725 723 721 718 715 713 711 709 708 707 705 702 699 696 695 694 693 691 690 689 687 686 684 682 681 680 678 677 676 675 674 673 672 671 670
777 777 776 776 775 775 774 774 773 772 772 771 770 769 769 768 767 766 766 764 764 763 762 761 760 758 756 754 753 751 750 749 748 747 746 745 744 743 742 741 740 739 738 736 735 734 732 729 727 725 724 723 721 719 716 714 711 709 706 705 704 702 700 697 695 693 692 690 688 687 686 685 684 682 680 679 677 676 675 673 672 670 670 669 668 667
777 776 776 775 775 774 774 773 772 772 771 770 769 768 768 767 766 765 765 764 763 762 761 760 759 758 755 754 752 750 749 747 746 745 744 743 742 741 740 739 738 737 736 734 733 731 730 728 725 723 722 720 718 716 714 712 710 707 704 702 701 699 697 695 693 691 690 688 686 685 684 683 682 680 678 676 674 673 671 670 669 668 666 665 665 664
777 776 775 775 774 774 773 772 772 771 770 769 768 768 767 766 765 764 764 763 762 761 759 759 758 756 755 753 751 750 748 746 744 743 742 741 740 739 738 737 736 735 734 732 730 729 727 725 724 722 720 718 715 712 710 709 708 705 703 700 699 697 695 692 690 689 688 686 684 682 681 681 680 678 676 674 671 670 668 667 666 665 664 663 661 660
776 775 775 774 774 773 772 772 771 770 769 768 767 766 766 765 764 763 762 761 761 760 759 758 756 755 753 752 750 749 747 745 743 741 740 739 738 737 736 735 734 733 731 730 728 727 724 723 721 720 718 716 713 710 707 705 705 703 701 699 697 695 692 690 688 686 685 684 682 680 680 679 677 675 673 671 669 666 665 664 663 662 661 660 659 657
775 775 774 774 773 772 772 771 770 769 768 767 766 765 764 764 763 762 761 760 759 759 758 756 755 754 752 750 749 748 746 744 743 740 739 738 736 735 734 733 732 730 729 727 726 724 722 720 718 717 715 714 711 708 705 703 701 700 698 696 695 693 690 687 685 684 683 681 680 678 678 676 675 674 672 670 667 664 662 660 660 659 658 657 656 655
775 774 774 773 772 772 771 770 769 769 768 766 765 764 764 763 762 761 760 759 758 757 756 755 754 752 751 749 747 746 745 743 741 739 738 736 735 734 732 731 730 728 726 724 723 721 719 717 715 713 712 711 709 707 704 700 699 697 696 694 692 690 688 685 683 682 680 679 677 676 675 674 673 671 670 668 665 662 659 657 656 655 655 655 653 652
774 774 773 772 772 771 770 769 769 768 767 766 765 764 763 761 760 760 759 758 757 756 755 754 753 751 749 748 746 744 743 742 740 738 736 734 734 732 731 729 728 727 725 723 721 719 717 714 711 709 707 707 706 705 703 700 697 695 693 691 690 689 687 684 682 680 679 677 676 674 673 672 670 669 668 666 664 660 657 655 653 652 652 652 651 650